Simultaneous Nadir Overpasses (SNOs) Predictions

Prediction of SNOs between NOAA-20 and AQUA Satellite Orbit:

Table of predicted SNOs for the next 14.0 days since TLE Epoch: 9/25/2020
Index Date (NOAA-20) Time (NOAA-20) Lat,Lon (NOAA-20) SZA (NOAA-20 ) Date (AQUA) Time (AQUA) Lat,Lon (AQUA) SZA (AQUA ) Distance(km) Time Diff (sec)
1 09/28/2020 06:46:08 76.18, -42.04 98.69 09/28/2020 06:46:23 76.18, -42.08 98.69 1.05 15
2 09/28/2020 07:36:38 -76.89, 127.94 82.16 09/28/2020 07:35:36 -76.90, 128.00 82.12 1.35 62
3 09/30/2020 22:12:36 -75.26, -96.54 79.30 09/30/2020 22:13:44 -75.26, -96.53 79.36 0.34 68
4 09/30/2020 23:02:51 76.59, 75.22 99.17 09/30/2020 23:02:42 76.58, 75.12 99.20 2.75 9
5 10/03/2020 14:29:18 -75.78, 20.84 78.93 10/03/2020 14:30:02 -75.77, 20.80 78.95 1.48 44
6 10/03/2020 15:19:44 76.59,-169.00 100.14 10/03/2020 15:19:10 76.59,-168.96 100.16 1.10 34
7 10/06/2020 06:46:09 -75.87, 136.93 78.07 10/06/2020 06:46:28 -75.88, 136.99 78.11 2.07 19
8 10/06/2020 07:36:27 77.03, -51.48 100.57 10/06/2020 07:35:29 77.02, -51.54 100.63 1.47 58
9 10/08/2020 22:12:34 75.01, 82.75 103.85 10/08/2020 22:13:45 75.02, 82.82 103.76 2.31 71
10 10/08/2020 23:02:51 -76.37,-105.56 77.70 10/08/2020 23:02:46 -76.37,-105.59 77.69 0.75 5
